星链-34847 (STARLINK-34847)

导读

STARLINK-34847是美国太空探索技术公司SpaceX星链互联网星座的组网卫星,于2025年8月14日发射升空,是星链低轨卫星互联网项目的组成单元。这类卫星部署在近地轨道,依托规模化星座组网,可为全球提供全天候、高速率的卫星互联网接入服务,进一步扩充了星链星座的服务覆盖与网络容量。

Basic Information
目录编号:
65211
目录名称:
STARLINK-34847
国际标识:
2025-176P
轨道中心:
EARTH
卫星名称:
星链-34847
卫星全名:
星链-34847 (STARLINK-34847)
卫星状态:
在轨 (已飞行395 天)
发射日期:
2025-08-14 UTC
国别 :
美国 (US)
星等 :
--
This satellite is enrolled in the Space Conjunction Data Service (SCDS) and the current flight risk assessment level is: High Risk
Orbit Information
数据来源 国际轨道数据 AOE轨道数据
星历时间 2026-09-12T01:20:23+0800
1天前
查看轨道信息
2026-09-11T07:00:00+0800
2天前
查看轨道信息
半长轴 6840.824km 6840.892km
偏心率 0.0001114 0.0001088
轨道倾角 53.161° 53.160°
近地点辐角 92.574° 81.788°
升交点赤经 6.446° 10.020°
平近点角 267.539° 14.889°
近地点 461.924km 462.01km
远地点 463.45km 463.5km
周期 93.847分钟 93.849分钟
每日圈数 15.344055 15.343826
Detailed Information
固有亮度:
5
最大亮度:
2.5
卫星平台:
Starlink V1.0
覆盖范围:
全球
运营商:
太空探索技术公司
运营商所在国:
美国
制造商(研发单位):
太空探索技术公司
制造商所在国:
美国
使用方式:
暂无
Satellite Introduction
Starlink 计划是 SpaceX 推出的全球卫星互联网项目,通过发射低轨道卫星,为全球尤其是偏远地区提供高速、低延迟的互联网服务。自 2019 年起,Starlink 已部署数千颗卫星,旨在缩小全球数字鸿沟,推动互联网普及。该项目还为军事、航空等行业提供通信支持,带来广泛经济效益。
2D Orbit Map
3D Orbit Map
Orbit Altitude Analysis Chart
Orbit Inclination Analysis Chart
Orbit Comprehensive Analysis Chart
View Comprehensive Chart
Conjunction Data List
Event ID Objects TCA Miss Dist (km) Collision Risk Probability Collision Risk Index (CRI) Action
CDM_260913-132805-342206-521121
2026-09-13T
13:28:29+0000
0.298 km
中距离
2.172109E-4 高风险 0.82
CDM_260913-093405-342206-521121
2026-09-13T
09:34:00+0000
0.345 km
远距离
1.61809E-4 高风险 0.79
CDM_260914-185304-302306-521122
2026-09-14T
18:53:23+0000
1.164 km
极远距离
8.470633E-6 低风险 0.54
CDM_260914-135505-358806-521121
2026-09-14T
13:55:40+0000
2.913 km
极远距离
1.143047E-6 低风险 0.36
CDM_260913-080005-342206-521121
2026-09-13T
08:00:12+0000
1.870 km
极远距离
1.050505E-6 低风险 0.35
CDM_260913-115405-342206-521121
2026-09-13T
11:54:42+0000
2.075 km
极远距离
8.317153E-7 极低风险 0.33
CDM_260913-150205-342206-521121
2026-09-13T
15:02:17+0000
2.299 km
极远距离
6.818995E-7 极低风险 0.32
CDM_260913-110705-342206-521121
2026-09-13T
11:07:48+0000
2.453 km
极远距离
6.114544E-7 极低风险 0.31
Miss Distance Evolution Trend with All Objects
Collision Probability Evolution Trend with All Objects